Find Starlink 36640

NORAD ID: 67600 Int'l Des: 2026-018 Owner: SPXS Country: US Constellation: starlink operational
LEOCIRCULARRETROGRADE

Current View

Loading 3D Globe...

About Starlink 36640

Description loading...

Upcoming Passes

Passes for default location (London). Set your location on the main map for personalized predictions.

Altitude History

Loading altitude history...

Two-Line Element Set

1 67600U 26018M 26146.14397953 .00034633 00000-0 10697-2 0 9990
2 67600 97.2863 211.2495 0000745 81.4581 278.6746 15.33459380 19206
Epoch: May 26, 2026 • Age: 8 hours

Current Status

Altitude 475.8 km
Velocity 7.63 km/s
Sub-Earth Point 62.80°N, 139.77°E
Launch Date Jan 29, 2026
Age 0.3 years
Type internet

Technical Details

Classification Payload
Mass 575.00 kg
Dry Mass 530.00 kg
Total Mass 575.00 kg
Length 0.30 m
Diameter 4.10 m
Span 29.00 m
Shape Box + pan
Manufacturer SPXS
Bus Type Starlink V2MO
Phase Status In Orbit
Owner/State SPXS/US

Most Searched